Dewpoint
8 8 9 8 8 7 8 8 8 8 9 9 7 5 5 6 7 7 3 3 4 2 2 2 2 1 1
9 9 8 8 7 8 8 9 9 9 9 8 7 6 6 6 5 3 2 1 3 2 1 2 1 1 1
8 9 8 8 7 8 8 8 8 8 8 7 7 6 6 5 4 3 2 2 3 3 2 1 1 1 1
7 8 8 8 8 8 8 7 6 7 6 6 6 5 4 5 4 3 2 1 2 3 2 0 1 0 0
8 8 8 8 8 8 8 7 6 6 6 6 6 5 5 5 4 3 2 1 2 2 -0 0 0 -0 -1
6 7 7 7 7 8 7 6 5 6 6 6 6 6 5 4 4 3 2 0 2 1 0 0 -0 -1 -1
4 5 5 7 6 8 8 7 6 6 6 6 6 6 5 5 4 3 2 0 1 1 1 0 -0 -1 -3
2 3 4 5 5 6 6 7 7 7 6 6 6 6 6 5 4 4 2 0 -0 0 0 -0 -1 -4 -5
-5 0 3 4 5 5 6 5 4 5 6 6 6 5 5 4 5 4 2 -0 -0 1 0 -0 -1 -10 -13
-2 -4 -1 3 4 4 5 5 5 4 5 5 5 5 3 3 4 2 1 1 0 1 0 -1 -2 -20 -23
-5 -4 -2 -1 2 4 4 4 5 5 6 5 5 4 4 3 3 2 1 1 0 0 -0 -1 -5 -23 -25
-7 -4 -3 -3 0 2 4 4 4 5 5 5 5 4 4 3 2 2 1 0 -0 -0 -0 -2 -10 -23 -26
-6 -3 -2 -3 -3 1 1 2 3 3 4 4 4 4 4 4 3 2 1 -0 -0 -0 -1 -3 -17 -24 -25
-5 -4 -2 -2 -1 -0 -0 1 2 2 2 2 3 3 4 4 3 1 -1 -0 -1 -1 -2 -7 -21 -20 -21
-5 -5 -4 -3 -2 -1 -1 -1 0 1 1 1 0 1 3 4 1 -1 -2 -2 -2 -1 -3 -13 -20 -19 -18
-7 -5 -4 -4 -2 -2 -2 -2 -1 -0 -0 0 0 -0 -0 -1 -0 -1 -3 -7 -4 -4 -4 -17 -19 -18 -17
-7 -6 -5 -4 -4 -3 -3 -2 -2 -1 -0 -0 -0 -1 -2 -3 -3 -2 -3 -10 -6 -12 -7 -17 -19 -17 -17
Wind_Speed
40 39 36 37 35 37 40 43 43 44 47 51 45 41 37 32 33 35 33 30 29 26 23 23 22 20 18
33 39 42 44 44 40 41 43 41 42 51 48 43 40 33 35 35 32 30 29 28 24 23 21 21 20 19
48 44 46 47 44 42 48 42 40 45 50 43 36 31 35 34 31 31 30 29 28 24 23 22 22 21 21
34 38 36 31 35 34 34 34 35 40 37 35 33 34 34 35 32 30 29 28 27 25 23 23 22 22 22
33 33 38 34 34 34 30 29 38 37 37 35 36 37 38 35 33 30 28 25 25 24 22 20 21 21 22
24 30 36 35 33 34 32 33 36 41 40 40 40 40 39 37 34 31 27 26 26 25 23 23 23 20 20
34 33 28 36 36 38 41 39 43 44 47 46 43 42 40 37 35 31 28 27 27 25 24 24 23 20 19
31 32 33 29 35 38 35 38 46 50 48 51 50 47 44 41 36 35 30 28 26 26 26 24 22 18 18
31 33 34 33 31 37 41 42 46 53 52 50 51 51 49 43 39 37 32 30 28 26 25 25 21 17 18
32 34 34 34 34 36 43 45 46 42 51 49 49 50 40 43 38 35 33 31 30 27 27 24 21 20 19
35 36 36 35 33 36 40 46 47 50 45 51 53 49 42 34 42 37 36 36 33 29 29 26 22 21 20
33 36 37 39 34 33 38 41 42 48 47 45 54 57 54 32 28 40 41 40 35 32 31 26 23 22 20
30 34 36 37 37 35 35 39 42 51 48 45 47 53 50 47 45 40 45 43 39 35 33 27 26 24 22
29 33 32 33 33 33 31 39 41 45 46 44 51 49 52 46 43 36 38 40 44 39 34 29 27 25 23
28 31 28 29 30 29 30 35 42 43 42 41 48 44 39 45 36 32 35 39 29 42 37 34 30 27 25
27 28 27 25 25 26 28 32 39 40 44 45 43 35 30 31 33 33 33 34 36 36 39 35 32 30 27
26 28 25 21 20 23 25 30 34 37 34 39 40 40 36 25 30 30 32 34 37 32 42 35 33 31 28
Wind_Direction
253 255 255 261 267 273 267 269 265 263 251 244 236 228 233 231 233 239 249 254 256 265 262 258 263 269 271
254 259 261 265 271 274 269 265 264 260 241 230 225 228 223 227 233 240 247 251 253 256 259 260 264 264 268
259 253 257 269 268 263 266 262 258 249 235 225 221 216 223 229 234 241 246 250 250 251 254 260 261 265 266
275 267 269 267 267 257 254 250 242 231 219 214 213 219 226 232 235 244 249 249 245 246 253 257 260 263 266
267 264 262 260 261 253 245 242 224 213 211 213 217 221 227 232 237 243 250 249 240 243 250 256 260 267 272
273 269 266 263 263 250 236 222 209 216 215 219 221 226 229 233 240 244 249 243 236 240 246 252 256 264 261
269 265 274 260 264 242 240 232 225 221 218 220 224 231 234 236 242 246 250 241 233 238 244 249 255 258 252
265 268 266 262 264 266 266 245 236 227 221 220 222 225 232 237 239 246 247 240 234 233 239 248 252 254 250
268 265 263 255 253 257 251 235 226 224 225 227 227 224 225 226 233 241 241 237 232 232 237 244 247 245 240
280 271 263 257 251 247 252 248 237 227 227 224 226 227 220 224 228 234 233 230 228 228 234 237 237 234 228
281 281 273 268 255 246 249 249 243 239 239 229 224 221 210 211 215 225 227 227 223 223 227 229 229 229 223
279 277 276 273 267 258 250 249 256 252 251 240 227 221 209 199 199 212 218 224 223 220 223 224 224 221 216
279 288 277 272 271 270 263 250 245 242 238 235 232 222 212 215 220 211 207 214 218 218 218 218 217 213 209
288 291 287 277 271 269 267 254 243 235 236 231 221 213 212 214 221 208 209 204 210 212 213 211 209 205 204
292 300 290 279 274 265 264 255 237 230 224 218 210 212 215 213 205 214 210 209 211 208 207 204 202 201 200
296 312 296 286 275 271 265 249 235 224 219 206 207 199 195 199 208 211 206 210 203 205 206 203 198 198 199
307 313 299 289 283 273 264 246 229 232 223 208 198 195 188 177 194 205 210 201 198 200 200 203 200 197 199
Height
1437 1438 1441 1444 1446 1446 1449 1451 1450 1451 1452 1454 1457 1461 1465 1467 1470 1472 1474 1477 1477 1478 1477 1478 1477 1478 1477
1427 1429 1431 1432 1434 1435 1436 1438 1437 1438 1440 1444 1448 1453 1456 1460 1463 1465 1468 1469 1471 1472 1472 1472 1473 1473 1472
1416 1418 1420 1421 1422 1422 1426 1425 1426 1428 1431 1436 1441 1446 1450 1454 1455 1458 1461 1463 1465 1465 1466 1467 1468 1468 1467
1410 1410 1411 1411 1411 1413 1413 1415 1417 1421 1426 1431 1435 1439 1443 1446 1448 1452 1455 1456 1458 1460 1461 1461 1462 1462 1462
1402 1401 1402 1404 1403 1404 1405 1409 1412 1415 1420 1424 1428 1431 1435 1439 1442 1444 1446 1449 1452 1454 1455 1456 1457 1457 1457
1397 1396 1395 1397 1398 1399 1399 1401 1407 1410 1413 1417 1421 1423 1426 1430 1433 1437 1440 1442 1445 1448 1449 1449 1450 1449 1452
1390 1390 1390 1390 1391 1389 1391 1393 1395 1399 1403 1407 1411 1415 1419 1422 1425 1429 1432 1435 1439 1441 1443 1445 1445 1444 1445
1384 1383 1383 1384 1383 1385 1386 1385 1387 1389 1394 1396 1401 1403 1409 1414 1418 1422 1425 1428 1430 1434 1438 1441 1440 1439 1440
1373 1373 1373 1373 1377 1377 1375 1376 1375 1377 1382 1386 1390 1395 1398 1403 1409 1414 1417 1420 1423 1428 1430 1435 1436 1434 1436
1362 1361 1361 1362 1365 1365 1365 1364 1366 1367 1368 1377 1379 1385 1391 1395 1399 1405 1408 1412 1416 1419 1425 1429 1429 1430 1429
1353 1352 1351 1350 1351 1353 1355 1354 1354 1354 1357 1366 1367 1373 1378 1380 1386 1394 1401 1405 1408 1413 1418 1421 1423 1425 1424
1345 1342 1340 1340 1341 1341 1343 1342 1344 1347 1350 1353 1355 1359 1364 1370 1375 1381 1390 1398 1403 1405 1410 1414 1417 1419 1421
1337 1334 1332 1331 1331 1331 1330 1331 1333 1335 1340 1343 1346 1348 1354 1358 1363 1370 1379 1388 1395 1399 1402 1407 1411 1413 1417
1330 1326 1323 1320 1320 1320 1319 1321 1324 1325 1328 1332 1338 1342 1345 1351 1357 1365 1371 1376 1384 1389 1396 1401 1406 1409 1412
1324 1319 1314 1312 1310 1311 1311 1311 1313 1315 1320 1325 1328 1333 1338 1342 1350 1359 1364 1369 1376 1383 1391 1393 1399 1404 1408
1317 1312 1307 1304 1303 1303 1302 1303 1306 1307 1310 1314 1317 1325 1333 1339 1344 1352 1358 1363 1369 1375 1387 1389 1391 1397 1405
1311 1306 1302 1298 1297 1296 1296 1297 1299 1301 1301 1308 1314 1317 1324 1329 1336 1346 1353 1358 1365 1371 1378 1385 1386 1393 1400